This demonstration page uses our WeatherBlox Daily Observations layout. Learn more.

Left ArrowRight Arrow

44.89941, -97.11507

Hourly Observations for July 26, 2020

Temp ( °F °C ) Dew Point ( °F °C ) Humidity (%) Winds ( mph kmh ) Pressure ( in mb ) Visibility ( mi km ) Precip ( " mm )
12:53 am 00:53 Mostly Cloudy 80 26.7 76 24.4 87 87 Calm 29.85 1011 10 16 0.00 0.00
1:53 am 01:53 Mostly Cloudy 79 26.1 76 24.4 90 90 NE 3 6 29.84 1010 10 16 0.00 0.00
2:04 am 02:04 Partly Cloudy with Nearby Thunderstorms 78 25.6 76 24.4 93 93 Calm 29.80 1009 10 16 0.00 0.00
2:10 am 02:10 Mostly Cloudy with Thunderstorms 77 25 75 23.9 94 94 NW 31 50 29.83 1010 10 16 0.00 0.00
2:23 am 02:23 Mostly Cloudy with Strong Thunderstorms 69 20.6 67 19.4 93 93 NNW 38 61 29.87 1012 2 3 0.15 3.81
2:26 am 02:26 Mostly Cloudy with Strong Thunderstorms 69 20.6 68 20 96 96 NNW 41 67 29.87 1012 1 2 0.36 9.14
2:29 am 02:29 Cloudy with Strong Thunderstorms 69 20.6 68 20 96 96 NNW 45 72 29.87 1012 1 1 0.56 14.22
2:38 am 02:38 Cloudy with Strong Thunderstorms 68 20 68 20 100 100 N 25 41 29.86 1011 1 2 0.69 17.53
2:41 am 02:41 Cloudy with Strong Thunderstorms 68 20 68 20 100 100 N 23 37 29.86 1011 2 3 0.70 17.78
2:50 am 02:50 Windy with Storms Likely 70 21 68 20 94 94 N 20 31 29.86 1011 8 13 0.70 17.78
2:53 am 02:53 Mostly Cloudy with Nearby Thunderstorms 69 20.6 68 20 96 96 N 18 30 29.88 1012 10 16 0.70 17.78
3:09 am 03:09 Mostly Cloudy with Rain 70 21.1 68 20 93 93 NNE 15 24 29.86 1011 6 10 0.02 0.51
3:53 am 03:53 Mostly Cloudy with Light Rain 70 21.1 68 20 93 93 ENE 9 15 29.86 1011 10 16 0.05 1.27
4:53 am 04:53 Mostly Clear 69 20.6 66 18.9 90 90 ESE 3 6 29.84 1011 10 16 0.00 0.00
5:53 am 05:53 Cloudy 70 21.1 66 18.9 87 87 SSE 7 11 29.96 1015 10 16 0.00 0.00
6:53 am 06:53 Partly Cloudy with Light Rain 69 20.6 68 20 96 96 WNW 5 7 29.99 1016 10 16 0.03 0.76
7:53 am 07:53 Mostly Cloudy with Light Rain 69 20.6 68 20 96 96 E 6 9 29.93 1014 10 16 0.07 1.78
8:53 am 08:53 Sunny 69 20.6 68 20 96 96 NNW 16 26 29.96 1015 10 16 0.00 0.00
9:53 am 09:53 Sunny 71 21.7 67 19.4 87 87 N 16 26 30.00 1016 10 16 0.00 0.00
10:53 am 10:53 Mostly Sunny 75 23.9 67 19.4 76 76 NNW 12 19 30.01 1016 10 16 0.00 0.00
11:53 am 11:53 Sunny 77 25 65 18.3 66 66 NNW 12 19 30.01 1016 10 16 0.00 0.00
12:53 pm 12:53 Sunny 80 26.7 64 17.8 58 58 NNW 13 20 30.01 1016 10 16 0.00 0.00
1:53 pm 13:53 Sunny 80 26.7 61 16.1 52 52 NNW 13 20 30.01 1016 10 16 0.00 0.00
2:53 pm 14:53 Sunny 81 27.2 57 13.9 44 44 NNW 17 28 30.04 1017 10 16 0.00 0.00
3:53 pm 15:53 Sunny 80 26.7 54 12.2 41 41 N 14 22 30.04 1017 10 16 0.00 0.00
4:53 pm 16:53 Sunny 80 26.7 56 13.3 44 44 NNW 16 26 30.04 1017 10 16 0.00 0.00
5:53 pm 17:53 Sunny 79 26.1 54 12.2 42 42 NNW 16 26 30.04 1017 10 16 0.00 0.00
6:53 pm 18:53 Sunny 77 25 54 12.2 45 45 NNW 14 22 30.02 1017 10 16 0.00 0.00
7:53 pm 19:53 Sunny 74 23.3 57 13.9 56 56 N 13 20 30.02 1017 10 16 0.00 0.00
8:53 pm 20:53 Sunny 69 20.6 59 15 70 70 N 5 7 30.04 1017 10 16 0.00 0.00
9:53 pm 21:53 Clear 68 20 59 15 73 73 Calm 30.06 1018 10 16 0.00 0.00
10:53 pm 22:53 Clear 68 20 59 15 73 73 Calm 30.07 1018 10 16 0.00 0.00
11:53 pm 23:53 Clear 65 18.3 60 15.6 84 84 Calm 30.06 1018 10 16 0.00 0.00

Powered by AerisWeather